Location: Unspecified
(0.0000°N, 0.0000°E)
Time: 13:25:27
(UTC+00:00)

Vanguard 2 - Pass Details

Date: 21 September 2019
Orbit: 554 x 2937 km, 32.9° (Epoch: 13 October)

Event Time Altitude Azimuth Distance (km) Brightness Sun altitude
Rises 18:30:52 0° 209° (SSW) 5,084 12.1 -9.4°
Reaches altitude 10° 18:36:14 10° 188° (S) 4,577 11.6 -10.8°
Maximum altitude 18:43:24 16° 155° (SSE) 4,632 11.2 -12.6°
Drops below altitude 10° 18:51:50 10° 124° (ESE) 5,544 11.4 -14.7°
Enters shadow 18:52:56 - 120° (ESE) 5,705 11.4 -15.0°
Sets 18:59:36 0° 105° (ESE) 6,765 - -16.6°
